Waarnemingen

Advertentie
Mijn weer
Mont-De-Marsan, Frankrijk (7607): temperatuur & dauwpunt: 17.10.2017 02:00:00 - 23.10.2017 02:00:00 (CEST)Mont-De-Marsan, Frankrijk (7607): temperatuur 5cm: 17.10.2017 02:00:00 - 23.10.2017 02:00:00 (CEST)Mont-De-Marsan, Frankrijk (7607): temperatuur -20cm & temperatuur -100cm: 17.10.2017 02:00:00 - 23.10.2017 02:00:00 (CEST)Mont-De-Marsan, Frankrijk (7607): windsnelheid & windstoten: 17.10.2017 02:00:00 - 23.10.2017 02:00:00 (CEST)Mont-De-Marsan, Frankrijk (7607): windrichting: 17.10.2017 02:00:00 - 23.10.2017 02:00:00 (CEST)Mont-De-Marsan, Frankrijk (7607): luchtdruk: 17.10.2017 02:00:00 - 23.10.2017 02:00:00 (CEST)Mont-De-Marsan, Frankrijk (7607): zicht: 17.10.2017 02:00:00 - 23.10.2017 02:00:00 (CEST)Mont-De-Marsan, Frankrijk (7607): Zonneschijnduur: 17.10.2017 02:00:00 - 23.10.2017 02:00:00 (CEST)Mont-De-Marsan, Frankrijk (7607): neerslag: 17.10.2017 02:00:00 - 23.10.2017 02:00:00 (CEST)
Datum & Tijd tt [°C] td [°C] tt 5cm [°C] tt -20cm [°C] tt -100cm [°C] ff [km/u] ff [kn] fx [km/u] fx [kn] dd ppp [hPa] vv [km] sd [min] rr [mm]
23.10.2017 02:00:00 11,4 10,6 9,7 16,5 17,8 9 5 15 8 NNW 1029,1 10 0 0,0
23.10.2017 01:00:00 10,3 9,5 7,3 16,6 17,8 4 2 6 3 ZO 1028,9 10 0 0,0
23.10.2017 00:00:00 9,8 8,9 6,8 16,7 17,8 0 0 6 3 N 1029,5 10 0 0,0
22.10.2017 23:00:00 11,7 9,8 8,3 16,7 17,8 4 2 8 5 - 1029,3 10 0 0,0
22.10.2017 22:00:00 12,7 10,2 11,9 16,7 17,8 5 3 11 6 W 1029,2 10 0 0,0
22.10.2017 21:00:00 13,1 9,7 11,3 16,7 17,8 5 3 11 6 ZW 1029,0 10 0 0,0
22.10.2017 20:00:00 12,7 10,2 12,3 16,7 17,9 5 3 14 8 W 1029,1 10 0 0,0
22.10.2017 19:00:00 13,5 9,9 13,2 16,6 17,9 13 7 35 19 NNW 1028,4 10 5 0,0
22.10.2017 18:00:00 15,4 11,4 14,2 16,5 17,9 9 5 16 9 W 1027,9 10 25 0,0
22.10.2017 17:00:00 14,4 11,0 13,2 16,4 17,9 8 4 28 15 WNW 1027,9 10 0 0,2
22.10.2017 16:00:00 15,6 10,6 15,3 16,4 17,8 13 7 25 13 W 1027,5 10 11 0,0
22.10.2017 15:00:00 14,3 12,0 13,2 16,2 17,9 16 9 26 14 W 1027,9 10 5 0,8
22.10.2017 14:00:00 15,5 11,1 14,2 16,1 17,9 8 4 21 11 WZW 1028,1 10 16 0,2
22.10.2017 13:00:00 16,4 10,9 18,3 16,0 17,9 13 7 26 14 W 1028,6 10 58 0,0
22.10.2017 12:00:00 15,1 11,1 16,8 16,1 17,9 13 7 24 13 ZW 1028,7 10 26 0,0
22.10.2017 11:00:00 13,8 11,5 13,6 16,2 17,9 5 3 20 11 - 1028,6 10 23 0,0
22.10.2017 10:00:00 12,6 11,0 10,7 16,3 17,9 11 6 19 10 ZZW 1028,6 10 32 0,0
22.10.2017 09:00:00 11,4 10,1 10,4 16,3 17,9 8 4 16 9 ZZW 1028,1 10 0 0,0
22.10.2017 08:00:00 11,1 10,0 9,0 16,4 17,9 5 3 12 6 WZW 1027,8 10 0 0,0
22.10.2017 07:00:00 11,4 10,0 9,8 16,4 17,9 4 2 16 9 - 1027,1 10 0 0,0
22.10.2017 06:00:00 11,7 10,1 10,7 16,5 17,9 9 5 14 8 WZW 1026,9 10 0 0,2
22.10.2017 05:00:00 11,7 10,4 10,9 16,7 17,9 4 2 15 8 - 1026,8 10 0 0,0
22.10.2017 04:00:00 11,7 10,4 11,0 16,8 17,9 8 4 16 9 ZW 1027,0 10 0 0,0
22.10.2017 03:00:00 11,7 10,4 10,4 16,8 17,9 8 4 13 7 ZZW 1027,2 10 0 0,4
22.10.2017 02:00:00 11,3 10,0 8,8 16,9 17,9 4 2 8 4 - 1027,4 10 0 0,2
22.10.2017 01:00:00 11,9 10,5 10,6 17,0 17,9 4 2 20 11 ZZW 1027,5 10 0 1,0
22.10.2017 00:00:00 12,1 10,2 10,2 17,1 17,9 5 3 14 7 ZZW 1027,0 10 0 0,4
21.10.2017 23:00:00 12,6 9,8 10,5 17,1 17,9 3 2 14 7 ZW 1027,0 20 0 0,0
21.10.2017 22:00:00 13,4 10,2 10,8 17,2 18,0 8 4 19 10 ZW 1026,8 10 0 0,0
21.10.2017 21:00:00 13,2 10,7 11,0 17,0 17,9 5 3 10 5 ZW 1026,7 18 0 0,0
21.10.2017 20:00:00 13,0 10,7 11,0 17,2 17,9 9 5 30 16 W 1026,3 10 0 0,0
21.10.2017 19:00:00 15,4 11,4 13,3 17,2 17,9 5 3 21 11 WZW 1025,3 10 24 0,0
21.10.2017 18:00:00 15,6 13,1 14,5 17,1 17,9 11 6 21 12 WZW 1024,9 10 0 0,4
21.10.2017 17:00:00 15,2 13,2 14,6 17,0 18,0 11 6 21 11 WZW 1024,7 7 0 0,2
21.10.2017 16:00:00 14,9 13,1 14,3 16,9 17,9 9 5 28 15 ZW 1024,0 10 0 0,6
21.10.2017 15:00:00 15,4 12,5 15,1 16,9 17,9 15 8 28 15 WZW 1024,0 10 0 0,0
21.10.2017 14:00:00 15,3 13,0 14,9 16,8 18,0 18 10 30 16 W 1024,0 4,3 0 0,4
21.10.2017 13:00:00 16,1 12,8 15,2 16,8 17,9 9 5 18 10 WZW 1023,9 10 0 0,0
21.10.2017 12:00:00 15,1 12,0 14,2 16,9 18,0 9 5 29 16 WZW 1023,8 10 0 0,0
21.10.2017 11:00:00 14,3 12,7 14,0 16,9 18,0 11 6 39 21 WZW 1023,6 10 0 0,8
21.10.2017 10:00:00 15,6 14,8 15,5 16,9 17,9 13 7 24 13 W 1022,7 10 0 1,2
21.10.2017 09:00:00 16,4 14,9 15,0 17,0 18,0 11 6 18 10 W 1021,6 3,2 0 0,8
21.10.2017 08:00:00 15,6 14,3 13,0 17,0 18,0 5 3 12 7 WZW 1020,5 10 0 0,0
21.10.2017 07:00:00 15,1 13,3 11,7 17,2 18,0 9 5 34 18 WZW 1020,1 10 0 0,0
21.10.2017 06:00:00 12,8 11,0 8,6 17,4 18,0 9 5 33 18 ZW 1018,6 59 0 0,0
21.10.2017 05:00:00 10,6 9,8 8,8 17,5 18,0 8 4 10 6 O 1017,4 10 0 0,0
21.10.2017 04:00:00 10,5 9,7 7,9 17,7 18,0 5 3 10 6 O 1017,6 10 0 0,0
21.10.2017 03:00:00 10,8 9,7 8,1 17,8 18,0 5 3 10 5 O 1017,2 10 0 0,0
21.10.2017 02:00:00 11,4 10,5 7,8 17,9 18,0 5 3 8 5 O 1017,1 10 0 0,0
21.10.2017 01:00:00 11,3 10,0 7,4 18,0 18,0 5 3 9 5 O 1017,2 10 0 0,0
21.10.2017 00:00:00 11,8 10,4 7,5 18,1 18,0 5 3 6 3 O 1017,4 10 0 0,0
20.10.2017 23:00:00 12,5 10,9 8,1 18,3 18,0 5 3 6 3 O 1017,5 10 0 0,0
20.10.2017 22:00:00 13,7 11,9 9,6 18,2 18,0 5 3 7 4 O 1017,5 10 0 0,0
20.10.2017 21:00:00 14,8 11,2 10,5 18,1 18,0 4 2 7 4 O 1017,5 10 0 0,0
20.10.2017 20:00:00 16,6 12,7 12,1 18,2 18,0 5 3 9 5 OZO 1017,3 10 0 0,0
20.10.2017 19:00:00 20,6 13,1 18,4 17,9 18,0 5 3 9 5 OZO 1017,1 10 44 0,0
20.10.2017 18:00:00 22,2 13,0 26,3 17,8 18,0 4 2 11 6 - 1017,1 10 60 0,0
20.10.2017 17:00:00 22,2 13,3 28,0 17,6 18,0 6 4 11 6 O 1017,2 60 60 0,0
20.10.2017 16:00:00 21,4 14,5 25,4 17,4 18,0 5 3 11 6 - 1017,4 10 41 0,0
20.10.2017 15:00:00 20,3 14,4 23,1 17,3 18,0 5 3 10 6 - 1017,6 10 0 0,0
20.10.2017 14:00:00 19,5 14,7 22,3 17,3 18,0 5 3 10 6 ZZO 1017,9 10 0 0,0
20.10.2017 13:00:00 18,8 14,5 21,1 17,2 18,0 5 3 10 6 - 1018,4 10 0 0,0
20.10.2017 12:00:00 18,2 13,7 18,0 17,3 18,0 2 1 10 5 - 1018,5 10 16 0,0
20.10.2017 11:00:00 15,3 13,0 14,6 17,2 18,0 0 0 4 2 N 1018,0 10 0 0,0
20.10.2017 10:00:00 13,7 12,6 12,8 17,3 18,0 0 0 6 4 N 1017,8 10 0 0,0
20.10.2017 09:00:00 12,8 12,0 12,2 17,4 18,0 4 2 10 5 - 1017,2 10 0 0,0
20.10.2017 08:00:00 12,6 11,8 12,0 17,5 18,0 0 0 10 5 N 1016,5 10 0 0,0
20.10.2017 07:00:00 12,6 11,8 12,4 17,5 18,0 4 2 6 3 O 1016,1 10 0 0,0
20.10.2017 06:00:00 12,4 11,8 12,2 17,6 18,0 4 2 6 3 ONO 1015,8 10 0 0,0
20.10.2017 05:00:00 12,1 11,5 11,3 17,7 18,0 5 3 7 4 O 1015,4 10 0 0,0
20.10.2017 04:00:00 11,4 10,9 10,5 18,0 18,0 4 2 8 4 O 1015,2 10 0 0,0
20.10.2017 03:00:00 11,6 11,0 7,6 18,1 18,0 4 2 6 3 O 1014,9 10 0 0,0
20.10.2017 02:00:00 10,9 10,3 7,3 18,2 18,0 0 0 6 3 N 1014,5 10 0 0,0
20.10.2017 01:00:00 11,7 11,1 8,4 18,4 18,0 0 0 5 3 N 1013,8 10 0 0,0
20.10.2017 00:00:00 11,8 11,2 8,9 18,4 18,0 4 2 7 4 O 1013,6 10 0 0,0
19.10.2017 23:00:00 11,9 11,0 8,0 18,5 18,0 8 4 9 5 O 1013,4 10 0 0,0
19.10.2017 22:00:00 13,1 12,0 8,7 18,5 18,0 4 2 6 4 - 1013,0 10 0 0,0
19.10.2017 21:00:00 14,3 12,8 9,9 18,5 18,0 0 0 4 2 N 1012,9 10 0 0,0
19.10.2017 20:00:00 15,9 13,2 12,3 18,4 18,0 0 0 5 3 N 1012,5 10 0 0,0
19.10.2017 19:00:00 18,0 13,3 16,4 18,3 18,0 4 2 11 6 NW 1012,3 10 4 0,0
19.10.2017 18:00:00 18,6 13,2 18,5 18,2 18,0 5 3 16 9 WNW 1011,2 10 24 0,0
19.10.2017 17:00:00 20,1 13,1 21,3 18,0 17,9 9 5 19 10 W 1010,8 10 53 0,0
19.10.2017 16:00:00 20,3 13,0 21,9 17,9 18,0 9 5 15 8 ZZW 1011,2 10 43 0,0
19.10.2017 15:00:00 19,9 12,6 22,8 17,8 18,0 8 4 14 8 ZZW 1011,0 10 45 0,0
19.10.2017 14:00:00 18,5 13,8 20,8 17,7 18,0 8 4 17 9 ZW 1011,7 10 15 0,0
19.10.2017 13:00:00 17,8 14,1 18,8 17,7 18,0 8 4 16 9 WZW 1012,0 10 5 0,0
19.10.2017 12:00:00 16,4 14,1 16,3 17,7 18,0 5 3 15 8 WZW 1012,3 10 0 0,0
19.10.2017 11:00:00 15,4 13,9 15,1 17,8 18,0 8 4 14 8 ZW 1012,1 10 0 0,0
19.10.2017 10:00:00 14,8 13,3 14,2 17,9 18,0 5 3 14 8 ZW 1011,5 10 0 0,0
19.10.2017 09:00:00 14,4 13,3 13,6 17,9 18,0 8 4 13 7 ZZW 1011,1 10 0 0,0
19.10.2017 08:00:00 14,2 13,1 13,6 17,9 17,9 8 4 13 7 ZW 1010,6 10 0 0,0
19.10.2017 07:00:00 14,3 13,3 13,9 18,1 18,0 5 3 16 8 ZZW 1010,6 10 0 0,2
19.10.2017 06:00:00 14,3 13,3 13,8 18,1 18,0 5 3 14 7 ZW 1010,3 10 0 0,0
19.10.2017 05:00:00 14,0 13,2 13,3 18,2 17,9 5 3 11 6 ZZW 1010,3 10 0 0,0
19.10.2017 04:00:00 13,6 12,8 12,0 18,4 17,9 5 3 13 7 Z 1010,5 10 0 0,0
19.10.2017 03:00:00 13,4 12,6 12,2 18,5 18,0 5 3 9 5 ZZO 1010,6 10 0 0,0
19.10.2017 02:00:00 13,7 13,1 10,8 18,6 18,0 0 0 8 5 N 1010,5 10 0 0,0
19.10.2017 01:00:00 13,3 12,5 10,4 18,6 17,9 2 1 15 8 - 1010,4 6 0 0,0
19.10.2017 00:00:00 14,4 13,6 14,1 18,7 17,9 8 4 15 8 ZW 1010,4 10 0 0,0
18.10.2017 23:00:00 14,7 13,9 13,9 18,7 17,9 5 3 10 6 ZZW 1010,2 10 0 0,0
18.10.2017 22:00:00 14,5 13,7 14,1 18,7 17,9 5 3 8 5 W 1009,7 10 0 0,4
18.10.2017 21:00:00 14,9 13,9 14,6 18,8 17,9 5 3 15 8 - 1009,9 10 0 0,6
18.10.2017 20:00:00 15,3 14,3 15,0 18,8 17,9 9 5 28 15 WZW 1009,8 10 0 0,2
18.10.2017 19:00:00 15,8 14,5 15,4 18,8 17,9 21 11 34 19 W 1008,7 10 0 0,2
18.10.2017 18:00:00 18,4 16,4 18,1 18,7 17,9 5 3 13 7 ZO 1008,1 10 5 0,0
18.10.2017 17:00:00 18,2 17,0 17,5 18,6 17,9 4 2 19 10 - 1008,4 5 0 1,0
18.10.2017 16:00:00 18,7 16,5 17,8 18,6 17,9 9 5 16 8 ZZO 1010,1 6 0 1,2
18.10.2017 15:00:00 19,7 15,6 18,7 18,4 17,9 4 2 15 8 - 1008,8 10 0 0,0
18.10.2017 14:00:00 19,0 16,2 18,6 18,4 17,9 5 3 14 8 - 1009,5 10 0 0,4
18.10.2017 13:00:00 20,6 14,7 21,1 18,4 17,9 8 4 20 11 O 1010,5 10 24 0,0
18.10.2017 12:00:00 20,6 14,9 21,3 18,4 17,9 9 5 18 10 O 1010,6 10 60 0,0
18.10.2017 11:00:00 18,8 15,5 16,7 18,4 17,9 11 6 20 11 O 1011,1 10 47 0,0
18.10.2017 10:00:00 16,5 15,2 15,8 18,6 17,9 8 4 11 6 O 1011,9 10 0 0,0
18.10.2017 09:00:00 16,0 14,9 15,3 18,5 17,9 5 3 11 6 - 1011,9 10 0 0,0
18.10.2017 08:00:00 15,9 14,9 15,2 18,6 17,9 8 4 16 9 O 1012,0 9 0 0,0
18.10.2017 07:00:00 15,6 14,8 14,8 18,7 17,9 8 4 18 10 O 1012,1 8 0 0,0
18.10.2017 06:00:00 16,0 15,0 15,4 18,7 17,9 8 4 13 7 ONO 1012,7 8 0 0,4
18.10.2017 05:00:00 16,4 14,9 15,6 18,8 17,9 5 3 11 6 O 1013,4 8 0 0,6
18.10.2017 04:00:00 16,6 15,0 15,8 18,8 17,9 8 4 16 9 O 1013,5 10 0 0,0
18.10.2017 03:00:00 17,3 14,9 16,3 18,9 17,9 11 6 20 11 O 1014,0 10 0 0,0
18.10.2017 02:00:00 17,5 14,6 17,0 18,9 17,9 9 5 16 8 O 1013,9 10 0 0,0
18.10.2017 01:00:00 18,2 14,7 17,2 19,0 17,9 8 4 14 8 O 1014,6 10 0 0,0
18.10.2017 00:00:00 18,7 14,8 18,0 19,0 17,9 9 5 16 9 O 1014,8 10 0 0,0
17.10.2017 23:00:00 19,7 14,7 19,2 19,0 17,9 11 6 22 12 O 1015,1 10 0 0,0
17.10.2017 22:00:00 20,5 14,4 19,6 18,9 17,9 11 6 22 12 O 1014,7 10 0 0,0
17.10.2017 21:00:00 21,3 14,0 20,0 19,0 17,9 11 6 23 12 O 1014,6 10 0 0,0
17.10.2017 20:00:00 21,3 13,7 17,9 18,8 17,8 11 6 18 10 O 1014,5 10 0 0,0
17.10.2017 19:00:00 22,9 13,4 20,5 18,8 17,8 9 5 14 7 O 1014,3 10 29 0,0
17.10.2017 18:00:00 26,0 13,1 25,8 18,7 17,8 8 4 18 10 O 1014,4 10 27 0,0
17.10.2017 17:00:00 26,4 12,8 26,7 18,4 17,8 11 6 17 9 O 1014,7 10 25 0,0
17.10.2017 16:00:00 27,1 13,8 31,2 18,2 17,8 13 7 23 12 O 1015,0 10 60 0,0
17.10.2017 15:00:00 26,5 13,6 32,1 18,1 17,8 11 6 19 11 OZO 1015,8 10 60 0,0
17.10.2017 14:00:00 25,5 15,2 30,7 17,9 17,8 11 6 18 10 OZO 1016,7 10 60 0,0
17.10.2017 13:00:00 23,4 14,9 28,1 18,0 17,8 11 6 19 10 ZO 1017,6 10 60 0,0
17.10.2017 12:00:00 21,2 15,3 24,0 18,1 17,8 11 6 22 12 OZO 1018,4 10 60 0,0
17.10.2017 11:00:00 18,9 15,2 19,3 18,1 17,8 13 7 22 12 O 1018,9 10 60 0,0
17.10.2017 10:00:00 16,8 15,3 14,7 18,2 17,8 11 6 19 10 O 1019,4 10 57 0,0
17.10.2017 09:00:00 14,8 14,3 12,8 18,2 17,8 9 5 22 12 O 1019,4 5 0 0,0
17.10.2017 08:00:00 12,8 12,3 8,6 18,4 17,8 5 3 11 6 O 1019,6 4,6 0 0,0
17.10.2017 07:00:00 13,6 12,8 9,4 18,5 17,8 2 1 10 5 - 1019,8 6 0 0,0
17.10.2017 06:00:00 13,8 13,2 12,0 18,5 17,8 9 5 13 7 O 1020,0 8 0 0,0
17.10.2017 05:00:00 14,8 13,7 13,4 18,6 17,8 8 4 20 11 O 1020,6 9 0 0,0
17.10.2017 04:00:00 16,8 16,3 16,9 18,6 17,8 9 5 14 8 O 1021,1 2,5 0 0,2
17.10.2017 03:00:00 17,2 16,7 16,7 18,6 17,8 4 2 9 5 - 1021,9 0,9 0 0,0
17.10.2017 02:00:00 16,8 16,2 16,8 18,7 17,8 5 3 7 4 O 1022,3 0,5 0 0,0

tt = temperatuur
td = dauwpunt
tt 5cm = temperatuur 5cm
tt -20cm = temperatuur -20cm
tt -100cm = temperatuur -100cm
ff = windsnelheid
fx = windstoten
dd = windrichting
ppp = luchtdruk
vv = zicht
sd = Zonneschijnduur
rr = neerslag

Weerstations in de omgeving